TimeCDT,TemperatureF,Dew PointF,Humidity,Sea Level PressureIn,VisibilityMPH,Wind Direction,Wind SpeedMPH,Gust SpeedMPH,PrecipitationIn,Events,Conditions,WindDirDegrees,DateUTC
12:53 AM,48.9,43.0,80,29.68,10.0,WSW,4.6,-,N/A,,Mostly Cloudy,250,2013-10-07 05:53:00
1:53 AM,50.0,42.1,74,29.68,10.0,WSW,3.5,-,N/A,,Overcast,240,2013-10-07 06:53:00
2:34 AM,50.0,42.8,76,29.68,10.0,West,6.9,-,N/A,,Overcast,280,2013-10-07 07:34:00
2:50 AM,48.2,44.6,87,29.69,9.0,West,9.2,-,0.00,Rain,Light Rain,280,2013-10-07 07:50:00
2:53 AM,48.9,44.1,83,29.68,9.0,West,9.2,-,0.01,Rain,Light Rain,280,2013-10-07 07:53:00
3:36 AM,48.2,44.6,87,29.69,10.0,West,6.9,-,0.02,Rain,Light Rain,270,2013-10-07 08:36:00
3:53 AM,48.0,46.0,93,29.70,6.0,WNW,6.9,-,0.03,Rain,Light Rain,290,2013-10-07 08:53:00
4:21 AM,48.2,46.4,93,29.70,10.0,WNW,6.9,-,0.00,,Overcast,290,2013-10-07 09:21:00
4:30 AM,48.2,46.4,93,29.70,10.0,WNW,11.5,-,0.00,,Overcast,290,2013-10-07 09:30:00
4:40 AM,48.2,46.4,93,29.71,10.0,WNW,9.2,-,0.00,,Overcast,290,2013-10-07 09:40:00
4:53 AM,48.9,46.9,93,29.71,10.0,WNW,10.4,-,0.00,,Overcast,290,2013-10-07 09:53:00
5:22 AM,50.0,46.4,87,29.72,8.0,WNW,10.4,-,0.00,Rain,Light Rain,300,2013-10-07 10:22:00
5:29 AM,50.0,46.4,87,29.72,8.0,NW,8.1,-,0.00,Rain,Light Rain,310,2013-10-07 10:29:00
5:53 AM,50.0,46.0,86,29.74,9.0,NW,11.5,23.0,0.00,,Overcast,320,2013-10-07 10:53:00
6:06 AM,50.0,44.6,82,29.75,10.0,NW,11.5,18.4,N/A,,Overcast,320,2013-10-07 11:06:00
6:21 AM,48.2,44.6,87,29.76,10.0,NW,10.4,19.6,N/A,,Scattered Clouds,320,2013-10-07 11:21:00
6:53 AM,48.0,43.0,83,29.78,10.0,WNW,8.1,-,N/A,,Clear,300,2013-10-07 11:53:00
7:53 AM,46.9,43.0,86,29.81,10.0,WNW,8.1,-,N/A,,Clear,290,2013-10-07 12:53:00
8:53 AM,48.9,44.1,83,29.83,10.0,WNW,12.7,-,N/A,,Clear,290,2013-10-07 13:53:00
9:53 AM,51.1,44.1,77,29.86,10.0,West,12.7,19.6,N/A,,Clear,280,2013-10-07 14:53:00
10:53 AM,53.1,44.1,71,29.87,10.0,West,10.4,18.4,N/A,,Clear,280,2013-10-07 15:53:00
11:53 AM,57.0,45.0,64,29.89,10.0,West,8.1,-,N/A,,Clear,270,2013-10-07 16:53:00
12:53 PM,60.1,46.0,60,29.88,10.0,WNW,8.1,-,N/A,,Partly Cloudy,290,2013-10-07 17:53:00
1:53 PM,63.0,42.1,46,29.88,10.0,WNW,15.0,-,N/A,,Clear,300,2013-10-07 18:53:00
2:53 PM,63.0,41.0,45,29.90,10.0,WNW,16.1,23.0,N/A,,Partly Cloudy,290,2013-10-07 19:53:00
3:53 PM,64.0,39.9,41,29.91,10.0,WNW,13.8,20.7,N/A,,Clear,290,2013-10-07 20:53:00
4:53 PM,63.0,39.0,41,29.93,10.0,WNW,10.4,-,N/A,,Clear,290,2013-10-07 21:53:00
5:53 PM,60.1,41.0,49,29.95,10.0,WNW,4.6,-,N/A,,Clear,290,2013-10-07 22:53:00
6:53 PM,55.0,42.1,62,29.98,10.0,Calm,Calm,-,N/A,,Clear,0,2013-10-07 23:53:00
7:53 PM,50.0,42.1,74,30.01,10.0,Calm,Calm,-,N/A,,Clear,0,2013-10-08 00:53:00
8:53 PM,46.9,41.0,80,30.04,10.0,Calm,Calm,-,N/A,,Clear,0,2013-10-08 01:53:00
9:53 PM,46.0,41.0,83,30.06,10.0,WSW,3.5,-,N/A,,Clear,250,2013-10-08 02:53:00
10:53 PM,45.0,41.0,86,30.07,10.0,Calm,Calm,-,N/A,,Clear,0,2013-10-08 03:53:00
11:53 PM,46.0,42.1,86,30.07,10.0,Calm,Calm,-,N/A,,Clear,0,2013-10-08 04:53:00